Location: Gryfice
(53.9133°N, 15.1955°E)
Time: 18:06:31
(UTC+01:00)

ISS - Visible Passes

Search period start: 16 January 2019 00:00
Search period end: 26 January 2019 00:00
Orbit: 404 x 407 km, 51.6° (Epoch: 17 January)

Date Brightness Start Highest point End Pass type
(mag) Time Alt. Az. Time Alt. Az. Time Alt. Az.
23 Jan -1.1 18:37:50 10° S 18:38:06 11° S 18:38:06 11° S visible
24 Jan -1.0 19:20:38 10° SW 19:21:11 13° SW 19:21:11 13° SW visible
25 Jan -2.1 18:29:09 10° SSW 18:31:29 22° SSE 18:31:29 22° SSE visible
